Location: ????????
(55.8351°N, 38.7040°E)
Time: 09:44:17
(UTC+00:00)

Cosmos 1980 - Pass Details

Date: 14 April 2024
Orbit: 840 x 845 km, 71.0° (Epoch: 19 May)

Event Time Altitude Azimuth Distance (km) Brightness Sun altitude
Exits shadow 01:30:59 - 217° (SW) 2,786 5.8 -7.4°
Reaches altitude 10° 01:31:51 10° 218° (SW) 2,458 5.6 -7.3°
Maximum altitude 01:37:30 80° 305° (NW) 860 3.8 -6.6°
Drops below altitude 10° 01:43:12 10° 34° (NNE) 2,470 7.2 -5.8°
Sets 01:45:39 0° 35° (NE) 3,408 8.1 -5.5°
